User: anonymous   Login
Location: Unspecified
(0.0000°N, 0.0000°E)
Time: 10:38:48
(UTC+00:00)
Language:

Hubble Space Telescope - Orbit

View from above orbital plane
View from above orbital plane
View from above satellite
View from above satellite

Ground track
Ground track

The orbit data is extracted from the following two-line orbital elements,

1 20580U 90037B   17179.97052083 +.00000425 +00000-0 +15166-4 0  9997
2 20580 028.4700 289.6593 0002599 304.0251 037.1487 15.08790046291978
Epoch (UTC): 28 June 2017 23:17:33
Eccentricity: 0.0002599
inclination: 28.4700°
perigee height: 538 km
apogee height: 542 km
right ascension of ascending node: 289.6593°
argument of perigee: 304.0251°
revolutions per day: 15.08790046
mean anomaly at epoch: 37.1487°
orbit number at epoch: 29197

The dashed part of the orbit path shows where the satellite is in the earth's shadow,  

DLR